Weather History for KCNY - March, 2015

Change the Weather History Date:

Tuesday, March 31, 2015

  Actual Average Record
Temperature  
Mean Temperature 60 °F 48 °F  
Max Temperature 82 °F 63 °F 84 °F (1978)
Min Temperature 38 °F 34 °F 20 °F (1977)
Degree Days  
Heating Degree Days 5 17  
Month to date heating degree days 501 638  
Since 1 July heating degree days 4218 5048  
Cooling Degree Days 0 0  
Month to date cooling degree days 0 0  
Year to date cooling degree days 0 0  
Growing Degree Days 8 (Base 50)    
Moisture  
Dew Point 17 °F    
Average Humidity 26    
Maximum Humidity 44    
Minimum Humidity 8    
Precipitation  
Precipitation 0.00 in 0.02 in 0.56 in (1979)
Month to date precipitation 0.04 0.77  
Year to date precipitation 0.61 1.93  
Sea Level Pressure  
Sea Level Pressure 29.84 in    
Wind  
Wind Speed 9 mph (SSW)    
Max Wind Speed 28 mph    
Max Gust Speed 35 mph    
Visibility 10 miles    
Events      
T = Trace of Precipitation, MM = Missing Value Source: NWS Daily Summary

Daily Weather History Graph

Daily Weather History Graph

Search for Another Location

Airport or City:

Trip Planner

Search our weather history database for the weather conditions in past years. The results will help you decide how hot, cold, wet, or windy it might be!

Date:

Astronomy

Mar. 31, 2015 Rise Set
Actual Time 7:05 AM MDT 7:41 PM MDT
Civil Twilight 6:38 AM MDT 8:08 PM MDT
Nautical Twilight 6:07 AM MDT 8:39 PM MDT
Astronomical Twilight 5:34 AM MDT 9:12 PM MDT
Moon 4:30 PM MDT (3/31) 5:04 AM MDT (3/31)
Length of Visible Light 13h 29m
Length of Day
12h 35m
Waxing Gibbous, 88% of the Moon is Illuminated
Mar 31
Waxing Gibbous
Apr 4
Full
Apr 11
Last Quarter
Apr 18
New
Apr 25
First Quarter

Hourly Weather History & Observations

Time (MDT) Temp. Windchill Dew Point Humidity Pressure Visibility Wind Dir Wind Speed Gust Speed Precip Events Conditions
12:53 AM 51.1 °F - 18.0 °F 27% 29.95 in 10.0 mi WSW 4.6 mph - N/A   Clear
1:53 AM 48.9 °F - 17.1 °F 28% 29.94 in 10.0 mi Calm Calm - N/A   Clear
2:53 AM 44.1 °F 40.8 °F 19.0 °F 37% 29.94 in 10.0 mi SW 5.8 mph - N/A   Clear
3:53 AM 46.0 °F 43.9 °F 18.0 °F 33% 29.93 in 10.0 mi West 4.6 mph - N/A   Clear
4:53 AM 46.0 °F - 17.1 °F 31% 29.93 in 10.0 mi Calm Calm - N/A   Clear
5:53 AM 37.9 °F - 18.0 °F 45% 29.95 in 10.0 mi Calm Calm - N/A   Clear
6:53 AM 45.0 °F - 19.0 °F 36% 29.96 in 10.0 mi Calm Calm - N/A   Clear
7:53 AM 43.0 °F 41.3 °F 19.9 °F 40% 29.99 in 10.0 mi West 3.5 mph - N/A   Clear
8:53 AM 55.9 °F - 21.0 °F 26% 29.96 in 10.0 mi SE 6.9 mph - N/A   Clear
9:53 AM 62.1 °F - 19.9 °F 20% 29.96 in 10.0 mi SE 10.4 mph - N/A   Clear
10:53 AM 66.0 °F - 19.0 °F 17% 29.94 in 10.0 mi East 5.8 mph - N/A   Clear
11:53 AM 69.1 °F - 19.9 °F 15% 29.93 in 10.0 mi Calm Calm - N/A   Clear
12:53 PM 73.0 °F - 21.0 °F 14% 29.88 in 10.0 mi Variable 3.5 mph - N/A   Clear
1:53 PM 78.1 °F - 21.0 °F 12% 29.82 in 10.0 mi SE 8.1 mph - N/A   Clear
2:53 PM 80.1 °F - 17.1 °F 9% 29.78 in 10.0 mi SW 17.3 mph 33.4 mph N/A   Partly Cloudy
3:53 PM 79.0 °F - 12.9 °F 8% 29.73 in 10.0 mi WSW 16.1 mph 27.6 mph N/A   Clear
4:09 PM 80.1 °F - 14.0 °F 8% 29.84 in 10.0 mi SSW 23.0 mph 35.7 mph N/A   Clear
4:53 PM 78.1 °F - 12.9 °F 8% 29.71 in 10.0 mi SW 17.3 mph - N/A   Clear
5:53 PM 75.0 °F - 12.9 °F 9% 29.73 in 10.0 mi SW 18.4 mph - N/A   Clear
6:53 PM 73.9 °F - 15.1 °F 11% 29.70 in 10.0 mi SSW 16.1 mph - N/A   Clear
7:53 PM 70.0 °F - 15.1 °F 12% 29.70 in 10.0 mi SW 10.4 mph - N/A   Clear
8:53 PM 64.9 °F - 16.0 °F 15% 29.68 in 10.0 mi SW 12.7 mph - N/A   Clear
9:53 PM 63.0 °F - 17.1 °F 17% 29.67 in 10.0 mi SW 13.8 mph - N/A   Clear
10:53 PM 63.0 °F - 18.0 °F 18% 29.66 in 10.0 mi SSW 15.0 mph - N/A   Clear
11:53 PM 57.9 °F - 18.0 °F 21% 29.67 in 10.0 mi SSW 11.5 mph - N/A   Clear